iso_date,Year,Hour,Min,DOY,POS_DOY,Lat,Lon,BP,Ts,Ta,has_bp,has_ts,has_ta,BuoyID,Buoy_Type,Buoy_Owner,Logistics,Hemisphere
2022-10-11T19:00:02Z,2022,19,0,284.7917,284.7917,57.7366,-152.503,1019.2,8.1,8.3,yes,yes,yes,300534061985510,AXIB_49,USIABP,SIZRS,North
2022-10-11T19:59:57Z,2022,20,0,284.8333,284.8333,57.7366,-152.5032,1019.6,7.7,7.5,yes,yes,yes,300534061985510,AXIB_49,USIABP,SIZRS,North
2022-10-12T22:00:02Z,2022,22,0,285.9167,285.9167,73.7746,-149.8552,1000.0,-1.3,1.5,yes,yes,yes,300534061985510,AXIB_49,USIABP,SIZRS,North
2022-10-12T22:59:57Z,2022,23,0,285.9583,285.9583,73.7742,-149.8508,999.5,-1.4,-0.8,yes,yes,yes,300534061985510,AXIB_49,USIABP,SIZRS,North
2022-10-13T00:00:00Z,2022,0,0,286.0,286.0,73.7734,-149.8506,999.0,-1.4,-1.6,yes,yes,yes,300534061985510,AXIB_49,USIABP,SIZRS,North
2022-10-13T01:00:02Z,2022,1,0,286.0417,286.0417,73.7724,-149.8448,998.7,-1.4,-2.4,yes,yes,yes,300534061985510,AXIB_49,USIABP,SIZRS,North
2022-10-13T01:59:57Z,2022,2,0,286.0833,286.0833,73.7728,-149.8372,998.7,-1.4,-3.3,yes,yes,yes,300534061985510,AXIB_49,USIABP,SIZRS,North
2022-10-13T03:00:00Z,2022,3,0,286.125,286.125,73.775,-149.8362,998.8,-1.4,-3.5,yes,yes,yes,300534061985510,AXIB_49,USIABP,SIZRS,North
2022-10-13T04:00:02Z,2022,4,0,286.1667,286.1667,73.7782,-149.8324,998.9,-1.4,-3.7,yes,yes,yes,300534061985510,AXIB_49,USIABP,SIZRS,North
2022-10-13T04:59:57Z,2022,5,0,286.2083,286.2083,73.7804,-149.8232,998.8,-1.4,-3.4,yes,yes,yes,300534061985510,AXIB_49,USIABP,SIZRS,North
2022-10-13T06:00:00Z,2022,6,0,286.25,286.25,73.7808,-149.8132,998.8,-1.4,-4.0,yes,yes,yes,300534061985510,AXIB_49,USIABP,SIZRS,North
2022-10-13T07:00:02Z,2022,7,0,286.2917,286.2917,73.7802,-149.8022,998.7,-1.3,-4.0,yes,yes,yes,300534061985510,AXIB_49,USIABP,SIZRS,North
2022-10-13T07:59:57Z,2022,8,0,286.3333,286.3333,73.7786,-149.7974,998.8,-1.3,-4.1,yes,yes,yes,300534061985510,AXIB_49,USIABP,SIZRS,North
2022-10-13T09:00:00Z,2022,9,0,286.375,286.375,73.7766,-149.7974,998.9,-1.3,-4.1,yes,yes,yes,300534061985510,AXIB_49,USIABP,SIZRS,North
2022-10-13T10:00:02Z,2022,10,0,286.4167,286.4167,73.775,-149.8028,999.0,-1.3,-3.8,yes,yes,yes,300534061985510,AXIB_49,USIABP,SIZRS,North
2022-10-13T10:59:57Z,2022,11,0,286.4583,286.4583,73.7732,-149.8106,998.9,-1.3,-4.0,yes,yes,yes,300534061985510,AXIB_49,USIABP,SIZRS,North
2022-10-13T12:00:00Z,2022,12,0,286.5,286.5,73.7728,-149.8198,998.9,-1.3,-4.1,yes,yes,yes,300534061985510,AXIB_49,USIABP,SIZRS,North
2022-10-13T13:00:02Z,2022,13,0,286.5417,286.5417,73.7742,-149.831,999.1,-1.3,-4.1,yes,yes,yes,300534061985510,AXIB_49,USIABP,SIZRS,North
2022-10-13T13:59:57Z,2022,14,0,286.5833,286.5833,73.7758,-149.8286,999.1,-1.3,-4.1,yes,yes,yes,300534061985510,AXIB_49,USIABP,SIZRS,North
2022-10-13T15:00:00Z,2022,15,0,286.625,286.625,73.7778,-149.8262,999.2,-1.3,-4.4,yes,yes,yes,300534061985510,AXIB_49,USIABP,SIZRS,North
2022-10-13T16:00:02Z,2022,16,0,286.6667,286.6667,73.7782,-149.8182,999.4,-1.3,-4.4,yes,yes,yes,300534061985510,AXIB_49,USIABP,SIZRS,North
2022-10-13T16:59:57Z,2022,17,0,286.7083,286.7083,73.777,-149.8108,999.7,-1.4,-3.9,yes,yes,yes,300534061985510,AXIB_49,USIABP,SIZRS,North
2022-10-13T18:00:00Z,2022,18,0,286.75,286.75,73.7746,-149.8054,1000.1,-1.4,-3.9,yes,yes,yes,300534061985510,AXIB_49,USIABP,SIZRS,North
2022-10-13T19:00:02Z,2022,19,0,286.7917,286.7917,73.771,-149.8024,1000.4,-1.4,-3.9,yes,yes,yes,300534061985510,AXIB_49,USIABP,SIZRS,North
2022-10-13T19:59:57Z,2022,20,0,286.8333,286.8333,73.768,-149.8026,1000.7,-1.4,-3.6,yes,yes,yes,300534061985510,AXIB_49,USIABP,SIZRS,North
2022-10-13T21:00:00Z,2022,21,0,286.875,286.875,73.764,-149.8074,1001.5,-1.4,-3.3,yes,yes,yes,300534061985510,AXIB_49,USIABP,SIZRS,North
2022-10-13T22:00:02Z,2022,22,0,286.9167,286.9167,73.7606,-149.8138,1006.3,-1.4,-2.2,yes,yes,yes,300534061985510,AXIB_49,USIABP,SIZRS,North
2022-10-13T22:59:57Z,2022,23,0,286.9583,286.9583,73.7574,-149.818,971.9,-1.4,-2.2,yes,yes,yes,300534061985510,AXIB_49,USIABP,SIZRS,North
2022-10-14T00:00:00Z,2022,0,0,287.0,287.0,73.7552,-149.8148,967.9,-1.4,-1.5,yes,yes,yes,300534061985510,AXIB_49,USIABP,SIZRS,North
2022-10-14T01:00:02Z,2022,1,0,287.0417,287.0417,73.7548,-149.8042,966.8,-1.4,-1.5,yes,yes,yes,300534061985510,AXIB_49,USIABP,SIZRS,North
2022-10-14T01:59:57Z,2022,2,0,287.0833,287.0833,73.755,-149.7798,966.9,-1.4,-1.5,yes,yes,yes,300534061985510,AXIB_49,USIABP,SIZRS,North
2022-10-14T03:00:00Z,2022,3,0,287.125,287.125,73.7556,-149.7504,980.5,-1.4,-1.5,yes,yes,yes,300534061985510,AXIB_49,USIABP,SIZRS,North
2022-10-14T04:00:02Z,2022,4,0,287.1667,287.1667,73.7568,-149.7238,992.9,-1.4,-1.5,yes,yes,yes,300534061985510,AXIB_49,USIABP,SIZRS,North
2022-10-14T04:59:57Z,2022,5,0,287.2083,287.2083,73.757,-149.6968,1004.1,-1.8,-1.5,yes,yes,yes,300534061985510,AXIB_49,USIABP,SIZRS,North
2022-10-14T06:00:00Z,2022,6,0,287.25,287.25,73.7576,-149.6726,986.3,-1.6,-1.5,yes,yes,yes,300534061985510,AXIB_49,USIABP,SIZRS,North
2022-10-14T07:00:02Z,2022,7,0,287.2917,287.2917,73.7566,-149.649,987.3,-1.8,-1.5,yes,yes,yes,300534061985510,AXIB_49,USIABP,SIZRS,North
2022-10-14T07:59:57Z,2022,8,0,287.3333,287.3333,73.754,-149.6234,987.1,-2.3,-1.5,yes,yes,yes,300534061985510,AXIB_49,USIABP,SIZRS,North
2022-10-14T09:00:00Z,2022,9,0,287.375,287.375,73.7512,-149.6024,986.7,-2.3,-1.5,yes,yes,yes,300534061985510,AXIB_49,USIABP,SIZRS,North
2022-10-14T10:00:02Z,2022,10,0,287.4167,287.4167,73.7488,-149.5886,986.4,-2.1,-1.5,yes,yes,yes,300534061985510,AXIB_49,USIABP,SIZRS,North
2022-10-14T10:59:57Z,2022,11,0,287.4583,287.4583,73.7468,-149.5796,994.4,-1.9,-1.5,yes,yes,yes,300534061985510,AXIB_49,USIABP,SIZRS,North
2022-10-14T12:00:00Z,2022,12,0,287.5,287.5,73.7458,-149.5702,994.0,-2.1,-1.5,yes,yes,yes,300534061985510,AXIB_49,USIABP,SIZRS,North
2022-10-14T13:00:02Z,2022,13,0,287.5417,287.5417,73.745,-149.5592,1000.4,-2.0,-1.5,yes,yes,yes,300534061985510,AXIB_49,USIABP,SIZRS,North
2022-10-14T13:59:57Z,2022,14,0,287.5833,287.5833,73.7446,-149.547,1001.2,-1.7,-1.5,yes,yes,yes,300534061985510,AXIB_49,USIABP,SIZRS,North
2022-10-14T15:00:00Z,2022,15,0,287.625,287.625,73.7446,-149.5306,993.2,-1.9,-1.5,yes,yes,yes,300534061985510,AXIB_49,USIABP,SIZRS,North
2022-10-14T16:00:02Z,2022,16,0,287.6667,287.6667,73.744,-149.5086,988.5,-1.9,-1.5,yes,yes,yes,300534061985510,AXIB_49,USIABP,SIZRS,North
2022-10-14T16:59:57Z,2022,17,0,287.7083,287.7083,73.7422,-149.484,995.8,-2.1,-1.5,yes,yes,yes,300534061985510,AXIB_49,USIABP,SIZRS,North
2022-10-14T18:00:00Z,2022,18,0,287.75,287.75,73.74,-149.4656,1000.1,-1.6,-1.5,yes,yes,yes,300534061985510,AXIB_49,USIABP,SIZRS,North
2022-10-14T19:00:02Z,2022,19,0,287.7917,287.7917,73.737,-149.4514,994.4,-1.5,-1.5,yes,yes,yes,300534061985510,AXIB_49,USIABP,SIZRS,North
2022-10-14T19:59:57Z,2022,20,0,287.8333,287.8333,73.7324,-149.4378,991.4,-1.4,-1.5,yes,yes,yes,300534061985510,AXIB_49,USIABP,SIZRS,North
2022-10-14T21:00:00Z,2022,21,0,287.875,287.875,73.7302,-149.4278,989.8,-1.4,-1.5,yes,yes,yes,300534061985510,AXIB_49,USIABP,SIZRS,North
2022-10-14T22:00:02Z,2022,22,0,287.9167,287.9167,73.7266,-149.4206,988.4,-1.4,-1.5,yes,yes,yes,300534061985510,AXIB_49,USIABP,SIZRS,North
2022-10-14T22:59:57Z,2022,23,0,287.9583,287.9583,73.723,-149.418,986.9,-1.4,-1.5,yes,yes,yes,300534061985510,AXIB_49,USIABP,SIZRS,North
2022-10-15T00:00:00Z,2022,0,0,288.0,288.0,73.7202,-149.4208,1020.7,-1.4,-1.5,yes,yes,yes,300534061985510,AXIB_49,USIABP,SIZRS,North
2022-10-15T01:00:02Z,2022,1,0,288.0417,288.0417,73.718,-149.4196,1047.4,-1.4,-1.5,yes,yes,yes,300534061985510,AXIB_49,USIABP,SIZRS,North
2022-10-15T01:59:57Z,2022,2,0,288.0833,288.0833,73.7158,-149.4072,1047.3,-1.4,-1.5,yes,yes,yes,300534061985510,AXIB_49,USIABP,SIZRS,North
2022-10-15T03:00:00Z,2022,3,0,288.125,288.125,73.7134,-149.3992,1030.2,-1.5,-1.5,yes,yes,yes,300534061985510,AXIB_49,USIABP,SIZRS,North
2022-10-15T04:00:02Z,2022,4,0,288.1667,288.1667,73.7126,-149.3954,1052.9,-1.5,-1.5,yes,yes,yes,300534061985510,AXIB_49,USIABP,SIZRS,North
2022-10-15T04:59:57Z,2022,5,0,288.2083,288.2083,73.713,-149.384,1041.4,-1.5,-1.5,yes,yes,yes,300534061985510,AXIB_49,USIABP,SIZRS,North
2022-10-15T06:00:00Z,2022,6,0,288.25,288.25,73.7106,-149.371,1029.7,-1.5,-1.5,yes,yes,yes,300534061985510,AXIB_49,USIABP,SIZRS,North
2022-10-15T07:00:02Z,2022,7,0,288.2917,288.2917,73.7086,-149.3632,1018.5,-1.5,-1.5,yes,yes,yes,300534061985510,AXIB_49,USIABP,SIZRS,North
2022-10-15T07:59:57Z,2022,8,0,288.3333,288.3333,73.7064,-149.3564,1012.1,-1.5,-1.5,yes,yes,yes,300534061985510,AXIB_49,USIABP,SIZRS,North
2022-10-15T09:00:00Z,2022,9,0,288.375,288.375,73.7054,-149.3558,1020.3,-1.5,-1.5,yes,yes,yes,300534061985510,AXIB_49,USIABP,SIZRS,North
2022-10-15T10:00:02Z,2022,10,0,288.4167,288.4167,73.7062,-149.3582,1023.2,-1.5,-1.5,yes,yes,yes,300534061985510,AXIB_49,USIABP,SIZRS,North
2022-10-15T10:59:57Z,2022,11,0,288.4583,288.4583,73.707,-149.3546,1016.2,-1.5,-1.5,yes,yes,yes,300534061985510,AXIB_49,USIABP,SIZRS,North
2022-10-15T12:00:00Z,2022,12,0,288.5,288.5,73.707,-149.3502,1021.6,-1.5,-1.5,yes,yes,yes,300534061985510,AXIB_49,USIABP,SIZRS,North
2022-10-15T13:00:02Z,2022,13,0,288.5417,288.5417,73.709,-149.3424,1022.6,-1.5,-1.5,yes,yes,yes,300534061985510,AXIB_49,USIABP,SIZRS,North
2022-10-15T13:59:57Z,2022,14,0,288.5833,288.5833,73.711,-149.3392,1024.6,-1.5,-1.5,yes,yes,yes,300534061985510,AXIB_49,USIABP,SIZRS,North
2022-10-15T15:00:00Z,2022,15,0,288.625,288.625,73.7136,-149.3374,1024.6,-1.5,-1.5,yes,yes,yes,300534061985510,AXIB_49,USIABP,SIZRS,North
2022-10-15T16:00:02Z,2022,16,0,288.6667,288.6667,73.7176,-149.3394,1025.1,-1.5,-1.5,yes,yes,yes,300534061985510,AXIB_49,USIABP,SIZRS,North
2022-10-15T16:59:57Z,2022,17,0,288.7083,288.7083,73.723,-149.3454,1024.9,-1.5,-1.5,yes,yes,yes,300534061985510,AXIB_49,USIABP,SIZRS,North
2022-10-15T18:00:00Z,2022,18,0,288.75,288.75,73.7294,-149.354,1025.1,-1.5,-1.5,yes,yes,yes,300534061985510,AXIB_49,USIABP,SIZRS,North
2022-10-15T19:00:02Z,2022,19,0,288.7917,288.7917,73.7368,-149.3606,1025.9,-1.5,-1.5,yes,yes,yes,300534061985510,AXIB_49,USIABP,SIZRS,North
2022-10-15T19:59:57Z,2022,20,0,288.8333,288.8333,73.7444,-149.3662,1026.3,-1.5,-1.5,yes,yes,yes,300534061985510,AXIB_49,USIABP,SIZRS,North
2022-10-15T21:00:00Z,2022,21,0,288.875,288.875,73.7522,-149.3684,1026.0,-1.4,-1.5,yes,yes,yes,300534061985510,AXIB_49,USIABP,SIZRS,North
2022-10-15T22:00:02Z,2022,22,0,288.9167,288.9167,73.7594,-149.368,1025.7,-1.4,-1.5,yes,yes,yes,300534061985510,AXIB_49,USIABP,SIZRS,North
2022-10-15T22:59:57Z,2022,23,0,288.9583,288.9583,73.766,-149.3676,1025.2,-1.4,-1.5,yes,yes,yes,300534061985510,AXIB_49,USIABP,SIZRS,North
2022-10-16T00:00:00Z,2022,0,0,289.0,289.0,73.7718,-149.3692,1024.2,-1.4,-1.5,yes,yes,yes,300534061985510,AXIB_49,USIABP,SIZRS,North
2022-10-16T01:00:02Z,2022,1,0,289.0417,289.0417,73.7774,-149.3742,1023.6,-1.4,-1.5,yes,yes,yes,300534061985510,AXIB_49,USIABP,SIZRS,North
2022-10-16T01:59:57Z,2022,2,0,289.0833,289.0833,73.7838,-149.3792,1023.0,-1.4,-1.6,yes,yes,yes,300534061985510,AXIB_49,USIABP,SIZRS,North
2022-10-16T03:00:00Z,2022,3,0,289.125,289.125,73.7906,-149.3792,1022.1,-1.4,-1.6,yes,yes,yes,300534061985510,AXIB_49,USIABP,SIZRS,North
2022-10-16T04:00:02Z,2022,4,0,289.1667,289.1667,73.7974,-149.3794,1022.1,-1.4,-1.6,yes,yes,yes,300534061985510,AXIB_49,USIABP,SIZRS,North
2022-10-16T04:59:57Z,2022,5,0,289.2083,289.2083,73.8058,-149.3736,1022.2,-1.4,-1.6,yes,yes,yes,300534061985510,AXIB_49,USIABP,SIZRS,North
2022-10-16T06:00:00Z,2022,6,0,289.25,289.25,73.813,-149.3644,1022.1,-1.5,-1.6,yes,yes,yes,300534061985510,AXIB_49,USIABP,SIZRS,North
2022-10-16T07:00:02Z,2022,7,0,289.2917,289.2917,73.818,-149.3558,1022.3,-1.5,-1.6,yes,yes,yes,300534061985510,AXIB_49,USIABP,SIZRS,North
2022-10-16T07:59:57Z,2022,8,0,289.3333,289.3333,73.8238,-149.3524,1022.2,-1.4,-1.6,yes,yes,yes,300534061985510,AXIB_49,USIABP,SIZRS,North
2022-10-16T09:00:00Z,2022,9,0,289.375,289.375,73.832,-149.357,1022.4,-1.4,-1.6,yes,yes,yes,300534061985510,AXIB_49,USIABP,SIZRS,North
2022-10-16T10:00:02Z,2022,10,0,289.4167,289.4167,73.8416,-149.3636,1022.3,-1.4,-1.6,yes,yes,yes,300534061985510,AXIB_49,USIABP,SIZRS,North
2022-10-16T10:59:57Z,2022,11,0,289.4583,289.4583,73.851,-149.3778,1022.2,-1.4,-1.6,yes,yes,yes,300534061985510,AXIB_49,USIABP,SIZRS,North
2022-10-16T12:00:00Z,2022,12,0,289.5,289.5,73.8586,-149.3974,1022.0,-1.4,-1.7,yes,yes,yes,300534061985510,AXIB_49,USIABP,SIZRS,North
2022-10-16T13:00:02Z,2022,13,0,289.5417,289.5417,73.8644,-149.4182,1022.2,-1.4,-1.7,yes,yes,yes,300534061985510,AXIB_49,USIABP,SIZRS,North
2022-10-16T13:59:57Z,2022,14,0,289.5833,289.5833,73.8692,-149.4376,1022.0,-1.4,-1.7,yes,yes,yes,300534061985510,AXIB_49,USIABP,SIZRS,North
2022-10-16T15:00:00Z,2022,15,0,289.625,289.625,73.8724,-149.4632,1021.1,-1.5,-1.8,yes,yes,yes,300534061985510,AXIB_49,USIABP,SIZRS,North
2022-10-16T16:00:02Z,2022,16,0,289.6667,289.6667,73.875,-149.4988,1021.2,-1.5,-1.9,yes,yes,yes,300534061985510,AXIB_49,USIABP,SIZRS,North
2022-10-16T16:59:57Z,2022,17,0,289.7083,289.7083,73.8778,-149.5486,1021.2,-1.5,-2.0,yes,yes,yes,300534061985510,AXIB_49,USIABP,SIZRS,North
2022-10-16T18:00:00Z,2022,18,0,289.75,289.75,73.8818,-149.6038,1024.7,-1.5,-1.7,yes,yes,yes,300534061985510,AXIB_49,USIABP,SIZRS,North
2022-10-16T19:00:02Z,2022,19,0,289.7917,289.7917,73.8874,-149.6578,1019.5,-1.4,-1.6,yes,yes,yes,300534061985510,AXIB_49,USIABP,SIZRS,North
2022-10-16T19:59:57Z,2022,20,0,289.8333,289.8333,73.8938,-149.7114,1015.0,-1.4,-1.6,yes,yes,yes,300534061985510,AXIB_49,USIABP,SIZRS,North
2022-10-16T21:00:00Z,2022,21,0,289.875,289.875,73.902,-149.766,1014.9,-1.4,-1.7,yes,yes,yes,300534061985510,AXIB_49,USIABP,SIZRS,North
2022-10-16T22:00:02Z,2022,22,0,289.9167,289.9167,73.9114,-149.8192,1019.4,-1.6,-1.7,yes,yes,yes,300534061985510,AXIB_49,USIABP,SIZRS,North
2022-10-16T22:59:57Z,2022,23,0,289.9583,289.9583,73.9218,-149.8682,1007.3,-1.4,-1.7,yes,yes,yes,300534061985510,AXIB_49,USIABP,SIZRS,North
2022-10-17T00:00:00Z,2022,0,0,290.0,290.0,73.9304,-149.9122,1010.2,-1.4,-1.6,yes,yes,yes,300534061985510,AXIB_49,USIABP,SIZRS,North
2022-10-17T01:00:02Z,2022,1,0,290.0417,290.0417,73.937,-149.9586,1017.9,-1.4,-1.6,yes,yes,yes,300534061985510,AXIB_49,USIABP,SIZRS,North
2022-10-17T01:59:57Z,2022,2,0,290.0833,290.0833,73.9432,-150.0062,1020.3,-1.4,-1.5,yes,yes,yes,300534061985510,AXIB_49,USIABP,SIZRS,North
2022-10-17T03:00:00Z,2022,3,0,290.125,290.125,73.9494,-150.0566,1041.9,-1.4,-1.5,yes,yes,yes,300534061985510,AXIB_49,USIABP,SIZRS,North
2022-10-17T04:00:02Z,2022,4,0,290.1667,290.1667,73.9572,-150.112,1011.2,-1.4,-1.5,yes,yes,yes,300534061985510,AXIB_49,USIABP,SIZRS,North
2022-10-17T04:59:57Z,2022,5,0,290.2083,290.2083,73.964,-150.166,1012.9,-1.4,-1.5,yes,yes,yes,300534061985510,AXIB_49,USIABP,SIZRS,North
2022-10-17T06:00:00Z,2022,6,0,290.25,290.25,73.973,-150.2216,1013.4,-1.4,-1.5,yes,yes,yes,300534061985510,AXIB_49,USIABP,SIZRS,North
2022-10-17T07:59:57Z,2022,8,0,290.3333,290.3333,73.9928,-150.3274,1015.1,-1.5,-1.5,yes,yes,yes,300534061985510,AXIB_49,USIABP,SIZRS,North
2022-10-17T09:00:00Z,2022,9,0,290.375,290.375,74.0002,-150.372,1016.5,-1.5,-1.5,yes,yes,yes,300534061985510,AXIB_49,USIABP,SIZRS,North
2022-10-17T10:00:02Z,2022,10,0,290.4167,290.4167,74.0062,-150.4164,1015.8,-3.9,-1.5,yes,yes,yes,300534061985510,AXIB_49,USIABP,SIZRS,North
2022-10-17T10:59:57Z,2022,11,0,290.4583,290.4583,74.011,-150.4588,1015.0,-1.4,-1.5,yes,yes,yes,300534061985510,AXIB_49,USIABP,SIZRS,North
2022-10-17T12:00:00Z,2022,12,0,290.5,290.5,74.014,-150.5056,1015.9,-1.6,-1.5,yes,yes,yes,300534061985510,AXIB_49,USIABP,SIZRS,North
2022-10-17T13:00:02Z,2022,13,0,290.5417,290.5417,74.0176,-150.5556,1016.7,-1.4,-1.5,yes,yes,yes,300534061985510,AXIB_49,USIABP,SIZRS,North
2022-10-17T13:59:57Z,2022,14,0,290.5833,290.5833,74.0176,-150.5558,1019.0,-1.4,-1.5,yes,yes,yes,300534061985510,AXIB_49,USIABP,SIZRS,North
2022-10-17T15:00:00Z,2022,15,0,290.625,290.625,74.0176,-150.5558,1021.7,-1.4,-1.5,yes,yes,yes,300534061985510,AXIB_49,USIABP,SIZRS,North
2022-10-17T16:00:02Z,2022,16,0,290.6667,290.6667,74.0236,-150.7252,996.1,-1.5,-1.5,yes,yes,yes,300534061985510,AXIB_49,USIABP,SIZRS,North
2022-10-17T16:59:57Z,2022,17,0,290.7083,290.7083,74.0236,-150.7254,996.9,-1.4,-1.5,yes,yes,yes,300534061985510,AXIB_49,USIABP,SIZRS,North
2022-10-17T19:59:57Z,2022,20,0,290.8333,290.8333,74.0296,-150.9176,1031.3,-1.5,-1.5,yes,yes,yes,300534061985510,AXIB_49,USIABP,SIZRS,North
2022-10-17T21:00:00Z,2022,21,0,290.875,290.875,74.0288,-150.974,1030.3,-1.4,-6.8,yes,yes,yes,300534061985510,AXIB_49,USIABP,SIZRS,North
2022-10-17T22:00:02Z,2022,22,0,290.9167,290.9167,74.0278,-151.03,1027.9,-1.4,-7.4,yes,yes,yes,300534061985510,AXIB_49,USIABP,SIZRS,North
2022-10-17T22:59:57Z,2022,23,0,290.9583,290.9583,74.0252,-151.0844,1026.0,-1.4,-7.7,yes,yes,yes,300534061985510,AXIB_49,USIABP,SIZRS,North
2022-10-18T00:00:00Z,2022,0,0,291.0,291.0,74.021,-151.1352,1024.8,-1.4,-7.8,yes,yes,yes,300534061985510,AXIB_49,USIABP,SIZRS,North
2022-10-18T01:00:02Z,2022,1,0,291.0417,291.0417,74.0158,-151.1834,1024.0,-1.4,-8.0,yes,yes,yes,300534061985510,AXIB_49,USIABP,SIZRS,North
2022-10-18T01:59:57Z,2022,2,0,291.0833,291.0833,74.0106,-151.2362,1023.5,-1.5,-8.2,yes,yes,yes,300534061985510,AXIB_49,USIABP,SIZRS,North
2022-10-18T03:00:00Z,2022,3,0,291.125,291.125,74.0058,-151.2898,1022.7,-1.5,-8.4,yes,yes,yes,300534061985510,AXIB_49,USIABP,SIZRS,North
2022-10-18T04:00:02Z,2022,4,0,291.1667,291.1667,73.9998,-151.3352,1020.8,-1.5,-8.5,yes,yes,yes,300534061985510,AXIB_49,USIABP,SIZRS,North
2022-10-18T04:59:57Z,2022,5,0,291.2083,291.2083,73.9936,-151.3742,1019.5,-1.5,-8.2,yes,yes,yes,300534061985510,AXIB_49,USIABP,SIZRS,North
2022-10-18T06:00:00Z,2022,6,0,291.25,291.25,73.9866,-151.4086,1019.1,-1.5,-8.0,yes,yes,yes,300534061985510,AXIB_49,USIABP,SIZRS,North
2022-10-18T07:00:02Z,2022,7,0,291.2917,291.2917,73.9792,-151.4398,1018.9,-1.5,-8.0,yes,yes,yes,300534061985510,AXIB_49,USIABP,SIZRS,North
2022-10-18T07:59:57Z,2022,8,0,291.3333,291.3333,73.9708,-151.4702,1018.6,-1.5,-7.9,yes,yes,yes,300534061985510,AXIB_49,USIABP,SIZRS,North
2022-10-18T09:00:00Z,2022,9,0,291.375,291.375,73.962,-151.5006,1018.5,-1.5,-8.0,yes,yes,yes,300534061985510,AXIB_49,USIABP,SIZRS,North
2022-10-18T10:00:02Z,2022,10,0,291.4167,291.4167,73.9526,-151.5332,1018.0,-1.5,-8.2,yes,yes,yes,300534061985510,AXIB_49,USIABP,SIZRS,North
2022-10-18T10:59:57Z,2022,11,0,291.4583,291.4583,73.9434,-151.5672,1017.5,-1.5,-8.1,yes,yes,yes,300534061985510,AXIB_49,USIABP,SIZRS,North
2022-10-18T12:00:00Z,2022,12,0,291.5,291.5,73.934,-151.6002,1017.4,-1.5,-8.0,yes,yes,yes,300534061985510,AXIB_49,USIABP,SIZRS,North
2022-10-18T13:00:02Z,2022,13,0,291.5417,291.5417,73.9248,-151.6322,1017.4,-1.5,-7.9,yes,yes,yes,300534061985510,AXIB_49,USIABP,SIZRS,North
2022-10-18T13:59:57Z,2022,14,0,291.5833,291.5833,73.9148,-151.6628,1017.7,-1.5,-7.7,yes,yes,yes,300534061985510,AXIB_49,USIABP,SIZRS,North
2022-10-18T15:00:00Z,2022,15,0,291.625,291.625,73.9058,-151.6874,1017.9,-1.5,-7.7,yes,yes,yes,300534061985510,AXIB_49,USIABP,SIZRS,North
2022-10-18T16:00:02Z,2022,16,0,291.6667,291.6667,73.8972,-151.7044,1017.9,-1.5,-7.8,yes,yes,yes,300534061985510,AXIB_49,USIABP,SIZRS,North
2022-10-18T16:59:57Z,2022,17,0,291.7083,291.7083,73.8888,-151.7178,1017.7,-1.5,-7.9,yes,yes,yes,300534061985510,AXIB_49,USIABP,SIZRS,North
2022-10-18T18:00:00Z,2022,18,0,291.75,291.75,73.88,-151.7318,1017.4,-1.5,-8.0,yes,yes,yes,300534061985510,AXIB_49,USIABP,SIZRS,North
2022-10-18T19:00:02Z,2022,19,0,291.7917,291.7917,73.8716,-151.7444,1017.0,-1.5,-8.2,yes,yes,yes,300534061985510,AXIB_49,USIABP,SIZRS,North
2022-10-18T19:59:57Z,2022,20,0,291.8333,291.8333,73.8644,-151.7566,1017.0,-1.5,-8.1,yes,yes,yes,300534061985510,AXIB_49,USIABP,SIZRS,North
2022-10-18T21:00:00Z,2022,21,0,291.875,291.875,73.8584,-151.768,1017.4,-1.5,-7.9,yes,yes,yes,300534061985510,AXIB_49,USIABP,SIZRS,North
2022-10-18T22:00:02Z,2022,22,0,291.9167,291.9167,73.854,-151.7772,1018.0,-1.5,-7.7,yes,yes,yes,300534061985510,AXIB_49,USIABP,SIZRS,North
2022-10-18T22:59:57Z,2022,23,0,291.9583,291.9583,73.8506,-151.7838,1018.6,-1.5,-7.5,yes,yes,yes,300534061985510,AXIB_49,USIABP,SIZRS,North
2022-10-19T00:00:00Z,2022,0,0,292.0,292.0,73.8478,-151.7874,1019.0,-1.5,-7.6,yes,yes,yes,300534061985510,AXIB_49,USIABP,SIZRS,North
2022-10-19T01:00:02Z,2022,1,0,292.0417,292.0417,73.8448,-151.7886,1019.1,-1.5,-7.6,yes,yes,yes,300534061985510,AXIB_49,USIABP,SIZRS,North
2022-10-19T01:59:57Z,2022,2,0,292.0833,292.0833,73.8418,-151.789,1019.2,-1.5,-7.5,yes,yes,yes,300534061985510,AXIB_49,USIABP,SIZRS,North
2022-10-19T03:00:00Z,2022,3,0,292.125,292.125,73.8382,-151.7904,1019.3,-1.4,-7.3,yes,yes,yes,300534061985510,AXIB_49,USIABP,SIZRS,North
2022-10-19T04:00:02Z,2022,4,0,292.1667,292.1667,73.8346,-151.7928,1019.5,-1.4,-7.2,yes,yes,yes,300534061985510,AXIB_49,USIABP,SIZRS,North
2022-10-19T04:59:57Z,2022,5,0,292.2083,292.2083,73.8318,-151.796,1019.9,-1.4,-7.0,yes,yes,yes,300534061985510,AXIB_49,USIABP,SIZRS,North
2022-10-19T06:00:00Z,2022,6,0,292.25,292.25,73.8296,-151.7994,1020.4,-1.4,-6.8,yes,yes,yes,300534061985510,AXIB_49,USIABP,SIZRS,North
2022-10-19T07:00:02Z,2022,7,0,292.2917,292.2917,73.828,-151.8024,1020.9,-1.4,-6.6,yes,yes,yes,300534061985510,AXIB_49,USIABP,SIZRS,North
2022-10-19T07:59:57Z,2022,8,0,292.3333,292.3333,73.8274,-151.8032,1021.4,-1.4,-6.5,yes,yes,yes,300534061985510,AXIB_49,USIABP,SIZRS,North
2022-10-19T09:00:00Z,2022,9,0,292.375,292.375,73.8272,-151.8016,1021.8,-1.4,-6.5,yes,yes,yes,300534061985510,AXIB_49,USIABP,SIZRS,North
2022-10-19T10:00:02Z,2022,10,0,292.4167,292.4167,73.827,-151.799,1022.2,-1.4,-6.3,yes,yes,yes,300534061985510,AXIB_49,USIABP,SIZRS,North
2022-10-19T10:59:57Z,2022,11,0,292.4583,292.4583,73.8266,-151.7972,1022.5,-1.4,-6.3,yes,yes,yes,300534061985510,AXIB_49,USIABP,SIZRS,North
2022-10-19T12:00:00Z,2022,12,0,292.5,292.5,73.8258,-151.796,1022.7,-1.4,-6.2,yes,yes,yes,300534061985510,AXIB_49,USIABP,SIZRS,North
2022-10-19T13:00:02Z,2022,13,0,292.5417,292.5417,73.8252,-151.7968,1023.0,-1.5,-6.0,yes,yes,yes,300534061985510,AXIB_49,USIABP,SIZRS,North
2022-10-19T13:59:57Z,2022,14,0,292.5833,292.5833,73.8252,-151.7984,1023.3,-1.5,-5.9,yes,yes,yes,300534061985510,AXIB_49,USIABP,SIZRS,North
2022-10-19T15:00:00Z,2022,15,0,292.625,292.625,73.8256,-151.8004,1023.6,-1.5,-5.8,yes,yes,yes,300534061985510,AXIB_49,USIABP,SIZRS,North
2022-10-19T16:00:02Z,2022,16,0,292.6667,292.6667,73.8258,-151.8012,1024.0,-1.5,-5.6,yes,yes,yes,300534061985510,AXIB_49,USIABP,SIZRS,North
2022-10-19T16:59:57Z,2022,17,0,292.7083,292.7083,73.826,-151.8006,1024.5,-1.5,-5.5,yes,yes,yes,300534061985510,AXIB_49,USIABP,SIZRS,North
2022-10-19T18:00:00Z,2022,18,0,292.75,292.75,73.826,-151.801,1024.9,-1.5,-5.4,yes,yes,yes,300534061985510,AXIB_49,USIABP,SIZRS,North
2022-10-19T19:00:02Z,2022,19,0,292.7917,292.7917,73.826,-151.8022,1025.3,-1.5,-5.4,yes,yes,yes,300534061985510,AXIB_49,USIABP,SIZRS,North
2022-10-19T19:59:57Z,2022,20,0,292.8333,292.8333,73.8262,-151.8034,1025.4,-1.5,-5.5,yes,yes,yes,300534061985510,AXIB_49,USIABP,SIZRS,North
2022-10-19T21:00:00Z,2022,21,0,292.875,292.875,73.8262,-151.8034,1025.7,-1.5,-5.3,yes,yes,yes,300534061985510,AXIB_49,USIABP,SIZRS,North
2022-10-19T22:00:02Z,2022,22,0,292.9167,292.9167,73.8264,-151.8046,1026.2,-1.5,-5.3,yes,yes,yes,300534061985510,AXIB_49,USIABP,SIZRS,North
2022-10-19T22:59:57Z,2022,23,0,292.9583,292.9583,73.827,-151.8082,1026.2,-1.5,-5.4,yes,yes,yes,300534061985510,AXIB_49,USIABP,SIZRS,North
2022-10-20T00:00:00Z,2022,0,0,293.0,293.0,73.8278,-151.816,1026.0,-1.5,-5.7,yes,yes,yes,300534061985510,AXIB_49,USIABP,SIZRS,North
2022-10-20T01:00:02Z,2022,1,0,293.0417,293.0417,73.829,-151.8254,1025.8,-1.5,-5.5,yes,yes,yes,300534061985510,AXIB_49,USIABP,SIZRS,North
2022-10-20T01:59:57Z,2022,2,0,293.0833,293.0833,73.8304,-151.8324,1025.4,-1.5,-5.7,yes,yes,yes,300534061985510,AXIB_49,USIABP,SIZRS,North
2022-10-20T03:00:00Z,2022,3,0,293.125,293.125,73.8316,-151.837,1025.1,-1.5,-5.7,yes,yes,yes,300534061985510,AXIB_49,USIABP,SIZRS,North
2022-10-20T04:00:02Z,2022,4,0,293.1667,293.1667,73.8332,-151.8428,1025.1,-1.5,-5.4,yes,yes,yes,300534061985510,AXIB_49,USIABP,SIZRS,North